User: anonymous   Login
Location: Unspecified
(0.0000°N, 0.0000°E)
Time: 05:48:05
(UTC+00:00)
Language:

TBA - TO BE ASSIGNED - Orbit

View from above orbital plane
View from above orbital plane
View from above satellite
View from above satellite

Ground track
Ground track

The orbit is defined by the following mean orbital elements,

1 68783U          26145.58335647 +.00000000 +00000-0 -26717-1 0 00009
2 68783  97.2848 182.4510 0001776  89.0735  75.2689 15.59298576    00
Epoch (UTC): 25 May 2026 14:00:01
Eccentricity: 0.0001776
inclination: 97.2848°
perigee height: 388 km
apogee height: 391 km
right ascension of ascending node: 182.4510°
argument of perigee: 89.0735°
revolutions per day: 15.59298576
mean anomaly at epoch: 75.2689°

The dashed part of the orbit path shows where the satellite is in the earth's shadow,  

DLR